Year,Month,Day,Hour,Minute,Value (Times are PST for temperature in C)
2017,06,29,00,00,12.80
2017,06,29,00,01,12.80
2017,06,29,00,02,12.80
2017,06,29,00,03,12.80
2017,06,29,00,04,12.80
2017,06,29,00,05,12.80
2017,06,29,00,06,12.80
2017,06,29,00,07,12.80
2017,06,29,00,08,12.80
2017,06,29,00,09,12.80
2017,06,29,00,10,12.80
2017,06,29,00,11,12.80
2017,06,29,00,12,12.80
2017,06,29,00,13,12.80
2017,06,29,00,14,12.80
2017,06,29,00,15,12.80
2017,06,29,00,16,12.80
2017,06,29,00,17,12.80
2017,06,29,00,18,12.80
2017,06,29,00,19,12.70
2017,06,29,00,20,12.70
2017,06,29,00,21,12.70
2017,06,29,00,22,12.70
2017,06,29,00,23,12.70
2017,06,29,00,24,12.70
2017,06,29,00,25,12.70
2017,06,29,00,26,12.70
2017,06,29,00,27,12.70
2017,06,29,00,28,12.70
2017,06,29,00,29,12.70
2017,06,29,00,30,12.70
2017,06,29,00,31,12.70
2017,06,29,00,32,12.70
2017,06,29,00,33,12.70
2017,06,29,00,34,12.70
2017,06,29,00,35,12.70
2017,06,29,00,36,12.60
2017,06,29,00,37,12.60
2017,06,29,00,38,12.60
2017,06,29,00,39,12.60
2017,06,29,00,40,12.60
2017,06,29,00,41,12.60
2017,06,29,00,42,12.60
2017,06,29,00,43,12.60
2017,06,29,00,44,12.60
2017,06,29,00,45,12.60
2017,06,29,00,46,12.60
2017,06,29,00,47,12.60
2017,06,29,00,48,12.60
2017,06,29,00,49,12.60
2017,06,29,00,50,12.60
2017,06,29,00,51,12.60
2017,06,29,00,52,12.60
2017,06,29,00,53,12.60
2017,06,29,00,54,12.60
2017,06,29,00,55,12.60
2017,06,29,00,56,12.60
2017,06,29,00,57,12.60
2017,06,29,00,58,12.60
2017,06,29,00,59,12.60
2017,06,29,01,00,12.60
2017,06,29,01,01,12.50
2017,06,29,01,02,12.50
2017,06,29,01,03,12.50
2017,06,29,01,04,12.40
2017,06,29,01,05,12.40
2017,06,29,01,06,12.40
2017,06,29,01,07,12.40
2017,06,29,01,08,12.40
2017,06,29,01,09,12.30
2017,06,29,01,10,12.30
2017,06,29,01,11,12.30
2017,06,29,01,12,12.30
2017,06,29,01,13,12.30
2017,06,29,01,14,12.30
2017,06,29,01,15,12.30
2017,06,29,01,16,12.30
2017,06,29,01,17,12.30
2017,06,29,01,18,12.20
2017,06,29,01,19,12.20
2017,06,29,01,20,12.20
2017,06,29,01,21,12.20
2017,06,29,01,22,12.20
2017,06,29,01,23,12.20
2017,06,29,01,24,12.10
2017,06,29,01,25,12.10
2017,06,29,01,26,12.10
2017,06,29,01,27,12.10
2017,06,29,01,28,12.10
2017,06,29,01,29,12.00
2017,06,29,01,30,12.00
2017,06,29,01,31,12.00
2017,06,29,01,32,11.90
2017,06,29,01,33,11.90
2017,06,29,01,34,11.90
2017,06,29,01,35,11.90
2017,06,29,01,36,11.90
2017,06,29,01,37,11.80
2017,06,29,01,38,11.80
2017,06,29,01,39,11.80
2017,06,29,01,40,11.80
2017,06,29,01,41,11.80
2017,06,29,01,42,11.80
2017,06,29,01,43,11.80
2017,06,29,01,44,11.70
2017,06,29,01,45,11.70
2017,06,29,01,46,11.70
2017,06,29,01,47,11.70
2017,06,29,01,48,11.70
2017,06,29,01,49,11.70
2017,06,29,01,50,11.70
2017,06,29,01,51,11.60
2017,06,29,01,52,11.60
2017,06,29,01,53,11.60
2017,06,29,01,54,11.60
2017,06,29,01,55,11.60
2017,06,29,01,56,11.60
2017,06,29,01,57,11.60
2017,06,29,01,58,11.60
2017,06,29,01,59,11.60
2017,06,29,02,00,11.60
2017,06,29,02,01,11.60
2017,06,29,02,02,11.60
2017,06,29,02,03,11.60
2017,06,29,02,04,11.60
2017,06,29,02,05,11.50
2017,06,29,02,06,11.50
2017,06,29,02,07,11.50
2017,06,29,02,08,11.50
2017,06,29,02,09,11.50
2017,06,29,02,10,11.50
2017,06,29,02,11,11.50
2017,06,29,02,12,11.40
2017,06,29,02,13,11.40
2017,06,29,02,14,11.40
2017,06,29,02,15,11.40
2017,06,29,02,16,11.40
2017,06,29,02,17,11.40
2017,06,29,02,18,11.40
2017,06,29,02,19,11.40
2017,06,29,02,20,11.30
2017,06,29,02,21,11.30
2017,06,29,02,22,11.30
2017,06,29,02,23,11.30
2017,06,29,02,24,11.30
2017,06,29,02,25,11.30
2017,06,29,02,26,11.30
2017,06,29,02,27,11.20
2017,06,29,02,28,11.20
2017,06,29,02,29,11.20
2017,06,29,02,30,11.20
2017,06,29,02,31,11.10
2017,06,29,02,32,11.10
2017,06,29,02,33,11.10
2017,06,29,02,34,11.10
2017,06,29,02,35,11.10
2017,06,29,02,36,11.10
2017,06,29,02,37,11.10
2017,06,29,02,38,11.10
2017,06,29,02,39,11.10
2017,06,29,02,40,11.00
2017,06,29,02,41,11.00
2017,06,29,02,42,11.00
2017,06,29,02,43,11.00
2017,06,29,02,44,10.90
2017,06,29,02,45,10.90
2017,06,29,02,46,10.90
2017,06,29,02,47,10.90
2017,06,29,02,48,10.90
2017,06,29,02,49,10.90
2017,06,29,02,50,10.90
2017,06,29,02,51,10.90
2017,06,29,02,52,10.90
2017,06,29,02,53,10.90
2017,06,29,02,54,10.90
2017,06,29,02,55,10.90
2017,06,29,02,56,10.90
2017,06,29,02,57,10.90
2017,06,29,02,58,10.90
2017,06,29,02,59,10.80
2017,06,29,03,00,10.80
2017,06,29,03,01,10.80
2017,06,29,03,02,10.80
2017,06,29,03,03,10.80
2017,06,29,03,04,10.80
2017,06,29,03,05,10.80
2017,06,29,03,06,10.80
2017,06,29,03,07,10.80
2017,06,29,03,08,10.80
2017,06,29,03,09,10.80
2017,06,29,03,10,10.80
2017,06,29,03,11,10.80
2017,06,29,03,12,10.70
2017,06,29,03,13,10.70
2017,06,29,03,14,10.70
2017,06,29,03,15,10.70
2017,06,29,03,16,10.70
2017,06,29,03,17,10.70
2017,06,29,03,18,10.70
2017,06,29,03,19,10.70
2017,06,29,03,20,10.70
2017,06,29,03,21,10.70
2017,06,29,03,22,10.70
2017,06,29,03,23,10.70
2017,06,29,03,24,10.60
2017,06,29,03,25,10.60
2017,06,29,03,26,10.60
2017,06,29,03,27,10.60
2017,06,29,03,28,10.60
2017,06,29,03,29,10.50
2017,06,29,03,30,10.50
2017,06,29,03,31,10.50
2017,06,29,03,32,10.50
2017,06,29,03,33,10.50
2017,06,29,03,34,10.50
2017,06,29,03,35,10.40
2017,06,29,03,36,10.40
2017,06,29,03,37,10.40
2017,06,29,03,38,10.40
2017,06,29,03,39,10.40
2017,06,29,03,40,10.40
2017,06,29,03,41,10.40
2017,06,29,03,42,10.40
2017,06,29,03,43,10.40
2017,06,29,03,44,10.40
2017,06,29,03,45,10.30
2017,06,29,03,46,10.30
2017,06,29,03,47,10.30
2017,06,29,03,48,10.30
2017,06,29,03,49,10.30
2017,06,29,03,50,10.30
2017,06,29,03,51,10.30
2017,06,29,03,52,10.30
2017,06,29,03,53,10.30
2017,06,29,03,54,10.30
2017,06,29,03,55,10.30
2017,06,29,03,56,10.30
2017,06,29,03,57,10.30
2017,06,29,03,58,10.30
2017,06,29,03,59,10.30
2017,06,29,04,00,10.30
2017,06,29,04,01,10.30
2017,06,29,04,02,10.30
2017,06,29,04,03,10.20
2017,06,29,04,04,10.20
2017,06,29,04,05,10.20
2017,06,29,04,06,10.20
2017,06,29,04,07,10.20
2017,06,29,04,08,10.20
2017,06,29,04,09,10.20
2017,06,29,04,10,10.10
2017,06,29,04,11,10.10
2017,06,29,04,12,10.10
2017,06,29,04,13,10.10
2017,06,29,04,14,10.10
2017,06,29,04,15,10.10
2017,06,29,04,16,10.10
2017,06,29,04,17,10.10
2017,06,29,04,18,10.10
2017,06,29,04,19,10.10
2017,06,29,04,20,10.10
2017,06,29,04,21,10.10
2017,06,29,04,22,10.10
2017,06,29,04,23,10.10
2017,06,29,04,24,10.10
2017,06,29,04,25,10.10
2017,06,29,04,26,10.10
2017,06,29,04,27,10.10
2017,06,29,04,28,10.10
2017,06,29,04,29,10.10
2017,06,29,04,30,10.10
2017,06,29,04,31,10.10
2017,06,29,04,32,10.10
2017,06,29,04,33,10.10
2017,06,29,04,34,10.10
2017,06,29,04,35,10.10
2017,06,29,04,36,10.10
2017,06,29,04,37,10.10
2017,06,29,04,38,10.10
2017,06,29,04,39,10.10
2017,06,29,04,40,10.10
2017,06,29,04,41,10.10
2017,06,29,04,42,10.10
2017,06,29,04,43,10.00
2017,06,29,04,44,10.00
2017,06,29,04,45,10.10
2017,06,29,04,46,10.10
2017,06,29,04,47,10.10
2017,06,29,04,48,10.10
2017,06,29,04,49,10.10
2017,06,29,04,50,10.00
2017,06,29,04,51,10.00
2017,06,29,04,52,10.00
2017,06,29,04,53,10.00
2017,06,29,04,54,10.00
2017,06,29,04,55,10.00
2017,06,29,04,56,9.90
2017,06,29,04,57,9.90
2017,06,29,04,58,9.90
2017,06,29,04,59,9.90
2017,06,29,05,00,9.90
2017,06,29,05,01,9.80
2017,06,29,05,02,9.80
2017,06,29,05,03,9.80
2017,06,29,05,04,9.80
2017,06,29,05,05,9.80
2017,06,29,05,06,9.80
2017,06,29,05,07,9.70
2017,06,29,05,08,9.70
2017,06,29,05,09,9.70
2017,06,29,05,10,9.70
2017,06,29,05,11,9.70
2017,06,29,05,12,9.70
2017,06,29,05,13,9.70
2017,06,29,05,14,9.70
2017,06,29,05,15,9.70
2017,06,29,05,16,9.70
2017,06,29,05,17,9.70
2017,06,29,05,18,9.70
2017,06,29,05,19,9.70
2017,06,29,05,20,9.70
2017,06,29,05,21,9.70
2017,06,29,05,22,9.70
2017,06,29,05,23,9.70
2017,06,29,05,24,9.70
2017,06,29,05,25,9.70
2017,06,29,05,26,9.70
2017,06,29,05,27,9.60
2017,06,29,05,28,9.60
2017,06,29,05,29,9.60
2017,06,29,05,30,9.60
2017,06,29,05,31,9.60
2017,06,29,05,32,9.60
2017,06,29,05,33,9.60
2017,06,29,05,34,9.60
2017,06,29,05,35,9.60
2017,06,29,05,36,9.60
2017,06,29,05,37,9.60
2017,06,29,05,38,9.60
2017,06,29,05,39,9.60
2017,06,29,05,40,9.60
2017,06,29,05,41,9.60
2017,06,29,05,42,9.60
2017,06,29,05,43,9.60
2017,06,29,05,44,9.60
2017,06,29,05,45,9.60
2017,06,29,05,46,9.60
2017,06,29,05,47,9.60
2017,06,29,05,48,9.60
2017,06,29,05,49,9.60
2017,06,29,05,50,9.60
2017,06,29,05,51,9.60
2017,06,29,05,52,9.60
2017,06,29,05,53,9.60
2017,06,29,05,54,9.60
2017,06,29,05,55,9.70
2017,06,29,05,56,9.70
2017,06,29,05,57,9.80
2017,06,29,05,58,9.80
2017,06,29,05,59,9.80
2017,06,29,06,00,9.80
2017,06,29,06,01,9.80
2017,06,29,06,02,9.80
2017,06,29,06,03,9.80
2017,06,29,06,04,9.80
2017,06,29,06,05,9.90
2017,06,29,06,06,9.90
2017,06,29,06,07,9.90
2017,06,29,06,08,9.90
2017,06,29,06,09,9.90
2017,06,29,06,10,9.90
2017,06,29,06,11,9.90
2017,06,29,06,12,9.90
2017,06,29,06,13,9.90
2017,06,29,06,14,9.90
2017,06,29,06,15,9.90
2017,06,29,06,16,10.00
2017,06,29,06,17,10.00
2017,06,29,06,18,10.00
2017,06,29,06,19,10.00
2017,06,29,06,20,10.00
2017,06,29,06,21,10.00
2017,06,29,06,22,10.10
2017,06,29,06,23,10.10
2017,06,29,06,24,10.10
2017,06,29,06,25,10.10
2017,06,29,06,26,10.10
2017,06,29,06,27,10.20
2017,06,29,06,28,10.20
2017,06,29,06,29,10.20
2017,06,29,06,30,10.30
2017,06,29,06,31,10.30
2017,06,29,06,32,10.30
2017,06,29,06,33,10.40
2017,06,29,06,34,10.40
2017,06,29,06,35,10.40
2017,06,29,06,36,10.50
2017,06,29,06,37,10.50
2017,06,29,06,38,10.50
2017,06,29,06,39,10.60
2017,06,29,06,40,10.60
2017,06,29,06,41,10.70
2017,06,29,06,42,10.70
2017,06,29,06,43,10.70
2017,06,29,06,44,10.70
2017,06,29,06,45,10.80
2017,06,29,06,46,10.80
2017,06,29,06,47,10.90
2017,06,29,06,48,10.90
2017,06,29,06,49,10.90
2017,06,29,06,50,10.90
2017,06,29,06,51,11.00
2017,06,29,06,52,11.00
2017,06,29,06,53,11.10
2017,06,29,06,54,11.10
2017,06,29,06,55,11.10
2017,06,29,06,56,11.10
2017,06,29,06,57,11.10
2017,06,29,06,58,11.10
2017,06,29,06,59,11.20
2017,06,29,07,00,11.20
2017,06,29,07,01,11.20
2017,06,29,07,02,11.20
2017,06,29,07,03,11.30
2017,06,29,07,04,11.30
2017,06,29,07,05,11.30
2017,06,29,07,06,11.40
2017,06,29,07,07,11.40
2017,06,29,07,08,11.40
2017,06,29,07,09,11.40
2017,06,29,07,10,11.50
2017,06,29,07,11,11.50
2017,06,29,07,12,11.50
2017,06,29,07,13,11.60
2017,06,29,07,14,11.60
2017,06,29,07,15,11.60
2017,06,29,07,16,11.60
2017,06,29,07,17,11.60
2017,06,29,07,18,11.70
2017,06,29,07,19,11.70
2017,06,29,07,20,11.70
2017,06,29,07,21,11.70
2017,06,29,07,22,11.70
2017,06,29,07,23,11.80
2017,06,29,07,24,11.80
2017,06,29,07,25,11.80
2017,06,29,07,26,11.80
2017,06,29,07,27,11.80
2017,06,29,07,28,11.80
2017,06,29,07,29,11.90
2017,06,29,07,30,11.90
2017,06,29,07,31,11.90
2017,06,29,07,32,12.00
2017,06,29,07,33,12.00
2017,06,29,07,34,12.00
2017,06,29,07,35,12.10
2017,06,29,07,36,12.10
2017,06,29,07,37,12.10
2017,06,29,07,38,12.10
2017,06,29,07,39,12.20
2017,06,29,07,40,12.20
2017,06,29,07,41,12.20
2017,06,29,07,42,12.20
2017,06,29,07,43,12.30
2017,06,29,07,44,12.30
2017,06,29,07,45,12.30
2017,06,29,07,46,12.30
2017,06,29,07,47,12.40
2017,06,29,07,48,12.40
2017,06,29,07,49,12.40
2017,06,29,07,50,12.50
2017,06,29,07,51,12.50
2017,06,29,07,52,12.50
2017,06,29,07,53,12.60
2017,06,29,07,54,12.60
2017,06,29,07,55,12.70
2017,06,29,07,56,12.70
2017,06,29,07,57,12.70
2017,06,29,07,58,12.80
2017,06,29,07,59,12.80
2017,06,29,08,00,12.80
2017,06,29,08,01,12.90
2017,06,29,08,02,12.90
2017,06,29,08,03,12.90
2017,06,29,08,04,13.00
2017,06,29,08,05,13.00
2017,06,29,08,06,13.10
2017,06,29,08,07,13.10
2017,06,29,08,08,13.20
2017,06,29,08,09,13.20
2017,06,29,08,10,13.20
2017,06,29,08,11,13.30
2017,06,29,08,12,13.30
2017,06,29,08,13,13.40
2017,06,29,08,14,13.40
2017,06,29,08,15,13.50
2017,06,29,08,16,13.50
2017,06,29,08,17,13.60
2017,06,29,08,18,13.60
2017,06,29,08,19,13.70
2017,06,29,08,20,13.70
2017,06,29,08,21,13.70
2017,06,29,08,22,13.80
2017,06,29,08,23,13.80
2017,06,29,08,24,13.90
2017,06,29,08,25,13.90
2017,06,29,08,26,13.90
2017,06,29,08,27,14.00
2017,06,29,08,28,14.00
2017,06,29,08,29,14.10
2017,06,29,08,30,14.10
2017,06,29,08,31,14.20
2017,06,29,08,32,14.20
2017,06,29,08,33,14.20
2017,06,29,08,34,14.30
2017,06,29,08,35,14.40
2017,06,29,08,36,14.40
2017,06,29,08,37,14.50
2017,06,29,08,38,14.50
2017,06,29,08,39,14.60
2017,06,29,08,40,14.70
2017,06,29,08,41,14.80
2017,06,29,08,42,14.80
2017,06,29,08,43,14.90
2017,06,29,08,44,15.00
2017,06,29,08,45,15.10
2017,06,29,08,46,15.10
2017,06,29,08,47,15.20
2017,06,29,08,48,15.30
2017,06,29,08,49,15.40
2017,06,29,08,50,15.50
2017,06,29,08,51,15.60
2017,06,29,08,52,15.70
2017,06,29,08,53,15.80
2017,06,29,08,54,15.90
2017,06,29,08,55,16.00
2017,06,29,08,56,16.10
2017,06,29,08,57,16.20
2017,06,29,08,58,16.30
2017,06,29,08,59,16.40
2017,06,29,09,00,16.50
2017,06,29,09,01,16.60
2017,06,29,09,02,16.70
2017,06,29,09,03,16.70
2017,06,29,09,04,16.80
2017,06,29,09,05,16.80
2017,06,29,09,06,16.90
2017,06,29,09,07,17.00
2017,06,29,09,08,17.10
2017,06,29,09,09,17.20
2017,06,29,09,10,17.20
2017,06,29,09,11,17.30
2017,06,29,09,12,17.40
2017,06,29,09,13,17.50
2017,06,29,09,14,17.60
2017,06,29,09,15,17.60
2017,06,29,09,16,17.70
2017,06,29,09,17,17.70
2017,06,29,09,18,17.80
2017,06,29,09,19,17.80
2017,06,29,09,20,17.80
2017,06,29,09,21,17.80
2017,06,29,09,22,17.80
2017,06,29,09,23,17.80
2017,06,29,09,24,17.80
2017,06,29,09,25,17.80
2017,06,29,09,26,17.80
2017,06,29,09,27,17.80
2017,06,29,09,28,17.90
2017,06,29,09,29,17.90
2017,06,29,09,30,18.00
2017,06,29,09,31,18.00
2017,06,29,09,32,18.10
2017,06,29,09,33,18.20
2017,06,29,09,34,18.30
2017,06,29,09,35,18.40
2017,06,29,09,36,18.40
2017,06,29,09,37,18.50
2017,06,29,09,38,18.60
2017,06,29,09,39,18.70
2017,06,29,09,40,18.80
2017,06,29,09,41,18.90
2017,06,29,09,42,19.00
2017,06,29,09,43,19.00
2017,06,29,09,44,19.10
2017,06,29,09,45,19.10
2017,06,29,09,46,19.10
2017,06,29,09,47,19.20
2017,06,29,09,48,19.20
2017,06,29,09,49,19.20
2017,06,29,09,50,19.20
2017,06,29,09,51,19.30
2017,06,29,09,52,19.30
2017,06,29,09,53,19.30
2017,06,29,09,54,19.30
2017,06,29,09,55,19.40
2017,06,29,09,56,19.40
2017,06,29,09,57,19.50
2017,06,29,09,58,19.50
2017,06,29,09,59,19.50
2017,06,29,10,00,19.50
2017,06,29,10,01,19.50
2017,06,29,10,02,19.50
2017,06,29,10,03,19.50
2017,06,29,10,04,19.50
2017,06,29,10,05,19.50
2017,06,29,10,06,19.50
2017,06,29,10,07,19.50
2017,06,29,10,08,19.50
2017,06,29,10,09,19.40
2017,06,29,10,10,19.40
2017,06,29,10,11,19.30
2017,06,29,10,12,19.30
2017,06,29,10,13,19.30
2017,06,29,10,14,19.30
2017,06,29,10,15,19.30
2017,06,29,10,16,19.40
2017,06,29,10,17,19.50
2017,06,29,10,18,19.60
2017,06,29,10,19,19.60
2017,06,29,10,20,19.70
2017,06,29,10,21,19.70
2017,06,29,10,22,19.70
2017,06,29,10,23,19.60
2017,06,29,10,24,19.60
2017,06,29,10,25,19.50
2017,06,29,10,26,19.50
2017,06,29,10,27,19.40
2017,06,29,10,28,19.50
2017,06,29,10,29,19.50
2017,06,29,10,30,19.60
2017,06,29,10,31,19.60
2017,06,29,10,32,19.70
2017,06,29,10,33,19.70
2017,06,29,10,34,19.80
2017,06,29,10,35,19.80
2017,06,29,10,36,19.80
2017,06,29,10,37,19.90
2017,06,29,10,38,19.90
2017,06,29,10,39,20.00
2017,06,29,10,40,20.00
2017,06,29,10,41,20.10
2017,06,29,10,42,20.10
2017,06,29,10,43,20.20
2017,06,29,10,44,20.30
2017,06,29,10,45,20.30
2017,06,29,10,46,20.30
2017,06,29,10,47,20.30
2017,06,29,10,48,20.30
2017,06,29,10,49,20.30
2017,06,29,10,50,20.30
2017,06,29,10,51,20.30
2017,06,29,10,52,20.30
2017,06,29,10,53,20.30
2017,06,29,10,54,20.30
2017,06,29,10,55,20.20
2017,06,29,10,56,20.20
2017,06,29,10,57,20.20
2017,06,29,10,58,20.20
2017,06,29,10,59,20.20
2017,06,29,11,00,20.10
2017,06,29,11,01,19.90
2017,06,29,11,02,19.90
2017,06,29,11,03,19.80
2017,06,29,11,04,19.80
2017,06,29,11,05,19.90
2017,06,29,11,06,19.80
2017,06,29,11,07,19.80
2017,06,29,11,08,19.80
2017,06,29,11,09,19.80
2017,06,29,11,10,19.80
2017,06,29,11,11,19.80
2017,06,29,11,12,19.90
2017,06,29,11,13,19.90
2017,06,29,11,14,20.00
2017,06,29,11,15,20.20
2017,06,29,11,16,20.30
2017,06,29,11,17,20.40
2017,06,29,11,18,20.60
2017,06,29,11,19,20.70
2017,06,29,11,20,20.80
2017,06,29,11,21,20.80
2017,06,29,11,22,20.80
2017,06,29,11,23,20.90
2017,06,29,11,24,20.80
2017,06,29,11,25,20.80
2017,06,29,11,26,20.80
2017,06,29,11,27,20.90
2017,06,29,11,28,20.90
2017,06,29,11,29,20.90
2017,06,29,11,30,21.00
2017,06,29,11,31,21.10
2017,06,29,11,32,21.20
2017,06,29,11,33,21.30
2017,06,29,11,34,21.30
2017,06,29,11,35,21.20
2017,06,29,11,36,21.20
2017,06,29,11,37,21.10
2017,06,29,11,38,21.10
2017,06,29,11,39,21.00
2017,06,29,11,40,20.90
2017,06,29,11,41,20.70
2017,06,29,11,42,20.60
2017,06,29,11,43,20.60
2017,06,29,11,44,20.60
2017,06,29,11,45,20.60
2017,06,29,11,46,20.60
2017,06,29,11,47,20.50
2017,06,29,11,48,20.60
2017,06,29,11,49,20.50
2017,06,29,11,50,20.60
2017,06,29,11,51,20.50
2017,06,29,11,52,20.50
2017,06,29,11,53,20.60
2017,06,29,11,54,20.70
2017,06,29,11,55,20.80
2017,06,29,11,56,20.90
2017,06,29,11,57,20.90
2017,06,29,11,58,20.90
2017,06,29,11,59,20.90
2017,06,29,12,00,21.00
2017,06,29,12,01,21.10
2017,06,29,12,02,21.00
2017,06,29,12,03,20.90
2017,06,29,12,04,21.00
2017,06,29,12,05,21.00
2017,06,29,12,06,21.10
2017,06,29,12,07,21.10
2017,06,29,12,08,21.10
2017,06,29,12,09,21.20
2017,06,29,12,10,21.40
2017,06,29,12,11,21.40
2017,06,29,12,12,21.50
2017,06,29,12,13,21.50
2017,06,29,12,14,21.60
2017,06,29,12,15,21.60
2017,06,29,12,16,21.80
2017,06,29,12,17,21.80
2017,06,29,12,18,21.90
2017,06,29,12,19,21.90
2017,06,29,12,20,21.90
2017,06,29,12,21,21.70
2017,06,29,12,22,21.70
2017,06,29,12,23,21.80
2017,06,29,12,24,21.80
2017,06,29,12,25,21.90
2017,06,29,12,26,22.00
2017,06,29,12,27,22.10
2017,06,29,12,28,22.20
2017,06,29,12,29,22.30
2017,06,29,12,30,22.40
2017,06,29,12,31,22.50
2017,06,29,12,32,22.60
2017,06,29,12,33,22.60
2017,06,29,12,34,22.60
2017,06,29,12,35,22.60
2017,06,29,12,36,22.50
2017,06,29,12,37,22.50
2017,06,29,12,38,22.50
2017,06,29,12,39,22.50
2017,06,29,12,40,22.60
2017,06,29,12,41,22.70
2017,06,29,12,42,22.80
2017,06,29,12,43,22.90
2017,06,29,12,44,23.00
2017,06,29,12,45,23.20
2017,06,29,12,46,23.30
2017,06,29,12,47,23.30
2017,06,29,12,48,23.20
2017,06,29,12,49,23.20
2017,06,29,12,50,23.10
2017,06,29,12,51,23.00
2017,06,29,12,52,22.90
2017,06,29,12,53,22.80
2017,06,29,12,54,22.60
2017,06,29,12,55,22.40
2017,06,29,12,56,22.30
2017,06,29,12,57,22.20
2017,06,29,12,58,22.10
2017,06,29,12,59,22.20
2017,06,29,13,00,22.20
2017,06,29,13,01,22.30
2017,06,29,13,02,22.40
2017,06,29,13,03,22.50
2017,06,29,13,04,22.60
2017,06,29,13,05,22.60
2017,06,29,13,06,22.70
2017,06,29,13,07,22.60
2017,06,29,13,08,22.60
2017,06,29,13,09,22.60
2017,06,29,13,10,22.60
2017,06,29,13,11,22.70
2017,06,29,13,12,22.80
2017,06,29,13,13,22.90
2017,06,29,13,14,23.00
2017,06,29,13,15,23.00
2017,06,29,13,16,22.90
2017,06,29,13,17,22.90
2017,06,29,13,18,22.90
2017,06,29,13,19,22.90
2017,06,29,13,20,22.90
2017,06,29,13,21,22.90
2017,06,29,13,22,23.00
2017,06,29,13,23,23.00
2017,06,29,13,24,23.10
2017,06,29,13,25,23.20
2017,06,29,13,26,23.30
2017,06,29,13,27,23.30
2017,06,29,13,28,23.30
2017,06,29,13,29,23.40
2017,06,29,13,30,23.40
2017,06,29,13,31,23.50
2017,06,29,13,32,23.60
2017,06,29,13,33,23.50
2017,06,29,13,34,23.50
2017,06,29,13,35,23.40
2017,06,29,13,36,23.30
2017,06,29,13,37,23.20
2017,06,29,13,38,23.20
2017,06,29,13,39,23.20
2017,06,29,13,40,23.10
2017,06,29,13,41,23.00
2017,06,29,13,42,22.80
2017,06,29,13,43,22.70
2017,06,29,13,44,22.70
2017,06,29,13,45,22.70
2017,06,29,13,46,22.60
2017,06,29,13,47,22.60
2017,06,29,13,48,22.50
2017,06,29,13,49,22.40
2017,06,29,13,50,22.40
2017,06,29,13,51,22.40
2017,06,29,13,52,22.40
2017,06,29,13,53,22.50
2017,06,29,13,54,22.60
2017,06,29,13,55,22.60
2017,06,29,13,56,22.70
2017,06,29,13,57,22.80
2017,06,29,13,58,22.90
2017,06,29,13,59,22.90
2017,06,29,14,00,22.90
2017,06,29,14,01,23.00
2017,06,29,14,02,23.10
2017,06,29,14,03,23.20
2017,06,29,14,04,23.30
2017,06,29,14,05,23.40
2017,06,29,14,06,23.50
2017,06,29,14,07,23.50
2017,06,29,14,08,23.60
2017,06,29,14,09,23.70
2017,06,29,14,10,23.70
2017,06,29,14,11,23.70
2017,06,29,14,12,23.80
2017,06,29,14,13,23.80
2017,06,29,14,14,23.80
2017,06,29,14,15,23.90
2017,06,29,14,16,24.00
2017,06,29,14,17,24.00
2017,06,29,14,18,24.10
2017,06,29,14,19,24.20
2017,06,29,14,20,24.20
2017,06,29,14,21,24.30
2017,06,29,14,22,24.30
2017,06,29,14,23,24.30
2017,06,29,14,24,24.30
2017,06,29,14,25,24.30
2017,06,29,14,26,24.30
2017,06,29,14,27,24.20
2017,06,29,14,28,24.20
2017,06,29,14,29,24.20
2017,06,29,14,30,24.10
2017,06,29,14,31,24.10
2017,06,29,14,32,24.10
2017,06,29,14,33,24.10
2017,06,29,14,34,24.20
2017,06,29,14,35,24.30
2017,06,29,14,36,24.30
2017,06,29,14,37,24.40
2017,06,29,14,38,24.40
2017,06,29,14,39,24.50
2017,06,29,14,40,24.50
2017,06,29,14,41,24.50
2017,06,29,14,42,24.50
2017,06,29,14,43,24.50
2017,06,29,14,44,24.50
2017,06,29,14,45,24.40
2017,06,29,14,46,24.30
2017,06,29,14,47,24.30
2017,06,29,14,48,24.30
2017,06,29,14,49,24.30
2017,06,29,14,50,24.20
2017,06,29,14,51,24.20
2017,06,29,14,52,24.20
2017,06,29,14,53,24.20
2017,06,29,14,54,24.20
2017,06,29,14,55,24.20
2017,06,29,14,56,24.20
2017,06,29,14,57,24.20
2017,06,29,14,58,24.20
2017,06,29,14,59,24.20
2017,06,29,15,00,24.20
2017,06,29,15,01,24.20
2017,06,29,15,02,24.20
2017,06,29,15,03,24.20
2017,06,29,15,04,24.20
2017,06,29,15,05,24.20
2017,06,29,15,06,24.20
2017,06,29,15,07,24.20
2017,06,29,15,08,24.30
2017,06,29,15,09,24.40
2017,06,29,15,10,24.40
2017,06,29,15,11,24.40
2017,06,29,15,12,24.40
2017,06,29,15,13,24.40
2017,06,29,15,14,24.40
2017,06,29,15,15,24.30
2017,06,29,15,16,24.30
2017,06,29,15,17,24.30
2017,06,29,15,18,24.30
2017,06,29,15,19,24.30
2017,06,29,15,20,24.30
2017,06,29,15,21,24.30
2017,06,29,15,22,24.40
2017,06,29,15,23,24.50
2017,06,29,15,24,24.60
2017,06,29,15,25,24.70
2017,06,29,15,26,24.70
2017,06,29,15,27,24.70
2017,06,29,15,28,24.50
2017,06,29,15,29,24.50
2017,06,29,15,30,24.50
2017,06,29,15,31,24.50
2017,06,29,15,32,24.40
2017,06,29,15,33,24.40
2017,06,29,15,34,24.50
2017,06,29,15,35,24.50
2017,06,29,15,36,24.60
2017,06,29,15,37,24.60
2017,06,29,15,38,24.60
2017,06,29,15,39,24.60
2017,06,29,15,40,24.70
2017,06,29,15,41,24.80
2017,06,29,15,42,24.90
2017,06,29,15,43,24.90
2017,06,29,15,44,25.00
2017,06,29,15,45,25.00
2017,06,29,15,46,24.90
2017,06,29,15,47,24.90
2017,06,29,15,48,25.00
2017,06,29,15,49,25.00
2017,06,29,15,50,25.00
2017,06,29,15,51,25.00
2017,06,29,15,52,25.00
2017,06,29,15,53,24.90
2017,06,29,15,54,24.90
2017,06,29,15,55,24.90
2017,06,29,15,56,24.90
2017,06,29,15,57,24.90
2017,06,29,15,58,24.90
2017,06,29,15,59,24.90
2017,06,29,16,00,24.80
2017,06,29,16,01,24.80
2017,06,29,16,02,24.80
2017,06,29,16,03,24.70
2017,06,29,16,04,24.70
2017,06,29,16,05,24.70
2017,06,29,16,06,24.70
2017,06,29,16,07,24.70
2017,06,29,16,08,24.70
2017,06,29,16,09,24.70
2017,06,29,16,10,24.80
2017,06,29,16,11,24.80
2017,06,29,16,12,24.70
2017,06,29,16,13,24.70
2017,06,29,16,14,24.70
2017,06,29,16,15,24.70
2017,06,29,16,16,24.60
2017,06,29,16,17,24.60
2017,06,29,16,18,24.60
2017,06,29,16,19,24.60
2017,06,29,16,20,24.60
2017,06,29,16,21,24.60
2017,06,29,16,22,24.60
2017,06,29,16,23,24.60
2017,06,29,16,24,24.70
2017,06,29,16,25,24.70
2017,06,29,16,26,24.70
2017,06,29,16,27,24.70
2017,06,29,16,28,24.60
2017,06,29,16,29,24.50
2017,06,29,16,30,24.50
2017,06,29,16,31,24.40
2017,06,29,16,32,24.40
2017,06,29,16,33,24.40
2017,06,29,16,34,24.40
2017,06,29,16,35,24.40
2017,06,29,16,36,24.40
2017,06,29,16,37,24.40
2017,06,29,16,38,24.40
2017,06,29,16,39,24.50
2017,06,29,16,40,24.50
2017,06,29,16,41,24.60
2017,06,29,16,42,24.70
2017,06,29,16,43,24.80
2017,06,29,16,44,24.80
2017,06,29,16,45,24.90
2017,06,29,16,46,24.90
2017,06,29,16,47,25.00
2017,06,29,16,48,25.00
2017,06,29,16,49,25.00
2017,06,29,16,50,24.90
2017,06,29,16,51,24.90
2017,06,29,16,52,24.90
2017,06,29,16,53,24.80
2017,06,29,16,54,24.80
2017,06,29,16,55,24.80
2017,06,29,16,56,24.80
2017,06,29,16,57,24.90
2017,06,29,16,58,24.90
2017,06,29,16,59,24.90
2017,06,29,17,00,24.90
2017,06,29,17,01,25.00
2017,06,29,17,02,25.10
2017,06,29,17,03,25.00
2017,06,29,17,04,24.90
2017,06,29,17,05,24.90
2017,06,29,17,06,24.80
2017,06,29,17,07,24.80
2017,06,29,17,08,24.80
2017,06,29,17,09,24.80
2017,06,29,17,10,24.80
2017,06,29,17,11,24.80
2017,06,29,17,12,24.70
2017,06,29,17,13,24.70
2017,06,29,17,14,24.70
2017,06,29,17,15,24.70
2017,06,29,17,16,24.70
2017,06,29,17,17,24.70
2017,06,29,17,18,24.80
2017,06,29,17,19,24.70
2017,06,29,17,20,24.70
2017,06,29,17,21,24.60
2017,06,29,17,22,24.60